INMARSAT 6-F2 (55683 NORAD) Tracking and Keplerian Element Data

This shows tracking and keplerian element data for the satellite.

Feedback or suggestion? Click here.




ElementValue
Catalog55683
NameINMARSAT 6-F2
Epoch Orbit18
Epoch Day61.4960975
Epoch Year2023
RAAN48.8282
Inclination26.9833
Eccentricity0.7533266
Argument of Perigee171.3424
Mean Anonmoly219.8082
Mean Motion1.91695227
Decay Rate2.48E-06
L11 55683U 23022A 23061.49609750 .00000248 00000+0 95646-3 0 9994
L22 55683 26.9833 48.8282 7533266 171.3424 219.8082 1.91695227 187



Live tracking and technical data element details for INMARSAT 6-F2 (NORAD 55683). INMARSAT 6-F2 can be tracked NOW for your location showing map with azimuth and elevation plus other details from your city location.







IsCatalogInMostPopularTable: catalog: 55683, numindb: 1
Update: records affected: 1



GetName: 55683 INMARSAT 6-F2

Hit Count: updated at: Wed, 22 Mar 2023 16:04:30 GMT